Weather History for KDEW - March, 2013

Change the Weather History Date:

Thursday, March 7, 2013

  Actual Average Record
Temperature  
Mean Temperature 34 °F 35 °F  
Max Temperature 41 °F 46 °F 63 °F (2015)
Min Temperature 26 °F 24 °F 12 °F (2002)
Degree Days  
Heating Degree Days 31 30  
Month to date heating degree days 203 217  
Since 1 July heating degree days 5281 5582  
Cooling Degree Days 0 0  
Month to date cooling degree days 0 0  
Year to date cooling degree days 0 0  
Moisture  
Dew Point 32 °F    
Average Humidity 93    
Maximum Humidity 100    
Minimum Humidity 85    
Precipitation  
Precipitation 0.14 in 0.06 in 0.14 in (2013)
Month to date precipitation 0.28 0.36  
Year to date precipitation 2.71 4.59  
Sea Level Pressure  
Sea Level Pressure 29.98 in    
Wind  
Wind Speed 4 mph (SSE)    
Max Wind Speed 13 mph    
Max Gust Speed 15 mph    
Visibility 5 miles    
Events Rain , Snow    
T = Trace of Precipitation, MM = Missing Value Source: NWS Daily Summary

Daily Weather History Graph

Daily Weather History Graph

Search for Another Location

Airport or City:

Trip Planner

Search our weather history database for the weather conditions in past years. The results will help you decide how hot, cold, wet, or windy it might be!

Date:

Astronomy

Mar. 07, 2013 Rise Set
Actual Time 6:18 AM PST 5:43 PM PST
Civil Twilight 5:47 AM PST 6:14 PM PST
Nautical Twilight 5:11 AM PST 6:50 PM PST
Astronomical Twilight 4:35 AM PST 7:27 PM PST
Moon 3:37 AM PST (3/7) 1:21 PM PST (3/7)
Length of Visible Light 12h 27m
Length of Day
11h 25m
Waning Crescent, 19% of the Moon is Illuminated
Mar 7
Waning Crescent
Mar 11
New
Mar 19
First Quarter
Mar 27
Full
Apr 2
Last Quarter

Hourly Weather History & Observations

Time (PST) Temp. Windchill Dew Point Humidity Pressure Visibility Wind Dir Wind Speed Gust Speed Precip Events Conditions
12:08 AM 33.8 °F 25.3 °F 33.8 °F 100% 29.82 in 2.5 mi South 11.5 mph - 0.01 in   Overcast
12:28 AM 33.8 °F 26.4 °F 33.8 °F 100% 29.82 in 4.0 mi South 9.2 mph - 0.01 in   Overcast
12:38 AM 33.8 °F 26.4 °F 33.8 °F 100% 29.83 in 7.0 mi SSE 9.2 mph - 0.01 in Snow Light Snow
12:53 AM 33.1 °F 26.1 °F 32.0 °F 96% 29.88 in 2.5 mi SSE 8.1 mph - 0.01 in Snow Light Snow
1:00 AM 33.8 °F 27.0 °F 32.0 °F 93% 29.84 in 3.0 mi SSE 8.1 mph - 0.00 in Snow Light Snow
1:26 AM 33.8 °F 26.4 °F 32.0 °F 93% 29.85 in 4.0 mi SSE 9.2 mph - 0.00 in   Overcast
1:38 AM 33.8 °F 26.4 °F 32.0 °F 93% 29.85 in 2.5 mi SSE 9.2 mph - 0.00 in Snow Light Snow
1:53 AM 33.1 °F 24.9 °F 32.0 °F 96% 29.90 in 4.0 mi SSE 10.4 mph - 0.01 in Snow Light Snow
2:11 AM 33.8 °F 27.0 °F 32.0 °F 93% 29.86 in 2.5 mi SSE 8.1 mph - 0.00 in Snow Light Snow
2:37 AM 32.0 °F 25.6 °F 32.0 °F 100% 29.86 in 1.8 mi SSE 6.9 mph - 0.00 in Snow Light Snow
2:53 AM 32.0 °F 25.6 °F 32.0 °F 100% 29.91 in 1.5 mi SE 6.9 mph - 0.00 in Snow Light Snow
3:05 AM 32.0 °F 25.6 °F 32.0 °F 100% 29.87 in 1.8 mi SE 6.9 mph - 0.00 in Snow Light Snow
3:07 AM 32.0 °F 25.6 °F 32.0 °F 100% 29.87 in 2.0 mi SE 6.9 mph - 0.00 in Snow Light Snow
3:14 AM 32.0 °F 25.6 °F 32.0 °F 100% 29.87 in 1.8 mi SSE 6.9 mph - 0.00 in Snow Light Snow
3:23 AM 32.0 °F 25.6 °F 32.0 °F 100% 29.88 in 2.0 mi SE 6.9 mph - 0.01 in Snow Light Snow
3:33 AM 32.0 °F 25.6 °F 32.0 °F 100% 29.88 in 1.8 mi SSE 6.9 mph - 0.01 in Snow Light Snow
3:39 AM 32.0 °F 24.8 °F 32.0 °F 100% 29.88 in 2.0 mi SSE 8.1 mph - 0.01 in Snow Light Snow
3:48 AM 32.0 °F 24.8 °F 32.0 °F 100% 29.88 in 1.8 mi SSE 8.1 mph - 0.01 in Snow Light Snow
3:53 AM 32.0 °F 25.6 °F 32.0 °F 100% 29.94 in 1.8 mi SSE 6.9 mph - 0.01 in Snow Light Snow
4:25 AM 32.0 °F 25.6 °F 32.0 °F 100% 29.89 in 1.5 mi SSE 6.9 mph - 0.01 in Snow Light Snow
4:39 AM 32.0 °F 25.6 °F 32.0 °F 100% 29.90 in 2.0 mi SSE 6.9 mph - 0.01 in Snow Light Snow
4:53 AM 32.0 °F 26.4 °F 32.0 °F 100% 29.96 in 2.0 mi SE 5.8 mph - 0.01 in Snow Light Snow
5:09 AM 32.0 °F 26.4 °F 32.0 °F 100% 29.91 in 1.5 mi SSE 5.8 mph - 0.00 in Snow Light Snow
5:53 AM 32.0 °F 26.4 °F 32.0 °F 100% 29.98 in 3.0 mi SE 5.8 mph - 0.02 in Snow Light Snow
6:38 AM 32.0 °F 26.4 °F 32.0 °F 100% 29.94 in 2.0 mi SE 5.8 mph - 0.00 in   Overcast
6:46 AM 32.0 °F 25.6 °F 32.0 °F 100% 29.95 in 1.2 mi SE 6.9 mph - 0.00 in   Overcast
6:53 AM 32.0 °F 25.6 °F 32.0 °F 100% 30.01 in 1.0 mi SE 6.9 mph - 0.00 in   Mist
7:01 AM 32.0 °F 26.4 °F 32.0 °F 100% 29.95 in 3.0 mi SE 5.8 mph - N/A   Overcast
7:08 AM 32.0 °F 25.6 °F 32.0 °F 100% 29.96 in 8.0 mi SE 6.9 mph - N/A   Overcast
7:24 AM 33.8 °F 27.7 °F 32.0 °F 93% 29.96 in 10.0 mi SE 6.9 mph - N/A   Overcast
7:53 AM 33.1 °F 26.1 °F 33.1 °F 100% 30.03 in 2.5 mi SSE 8.1 mph - 0.00 in Snow Light Snow
8:10 AM 33.8 °F 27.0 °F 33.8 °F 100% 29.98 in 3.0 mi SSE 8.1 mph - 0.00 in Snow Light Snow
8:20 AM 33.8 °F 27.0 °F 33.8 °F 100% 29.98 in 1.8 mi SSE 8.1 mph - 0.00 in Snow Light Snow
8:39 AM 33.8 °F 27.0 °F 33.8 °F 100% 29.99 in 1.2 mi SSE 8.1 mph - 0.00 in Snow Light Snow
8:53 AM 33.1 °F 26.1 °F 33.1 °F 100% 30.05 in 2.0 mi SSE 8.1 mph - 0.00 in Snow Light Snow
9:15 AM 33.8 °F 28.6 °F 33.8 °F 100% 30.00 in 4.0 mi SSE 5.8 mph - 0.00 in   Overcast
9:50 AM 33.8 °F 27.7 °F 33.8 °F 100% 30.01 in 9.0 mi SSE 6.9 mph - 0.00 in   Overcast
9:53 AM 34.0 °F 28.0 °F 34.0 °F 100% 30.07 in 9.0 mi SSE 6.9 mph - 0.00 in   Overcast
10:07 AM 35.6 °F 30.7 °F 33.8 °F 93% 30.02 in 10.0 mi SSE 5.8 mph - N/A   Overcast
10:53 AM 36.0 °F 32.1 °F 35.1 °F 97% 30.08 in 10.0 mi South 4.6 mph - N/A   Overcast
11:03 AM 35.6 °F 31.7 °F 35.6 °F 100% 30.03 in 10.0 mi SSE 4.6 mph - N/A   Overcast
11:53 AM 37.0 °F 33.3 °F 35.1 °F 93% 30.09 in 10.0 mi SSE 4.6 mph - N/A   Overcast
12:13 PM 37.4 °F 32.1 °F 35.6 °F 93% 30.04 in 10.0 mi SSE 6.9 mph - N/A   Overcast
12:53 PM 39.9 °F - 37.0 °F 89% 30.07 in 10.0 mi Calm Calm - N/A   Overcast
1:53 PM 39.0 °F - 36.0 °F 89% 30.07 in 10.0 mi Calm Calm - N/A   Overcast
2:30 PM 37.4 °F 32.1 °F 35.6 °F 93% 30.03 in 7.0 mi West 6.9 mph - 0.01 in Rain Light Rain
2:39 PM 37.4 °F - 33.8 °F 87% 30.03 in 1.8 mi Calm Calm - 0.05 in Rain Heavy Rain
2:45 PM 37.4 °F - 33.8 °F 87% 30.04 in 3.0 mi Calm Calm - 0.05 in Rain Light Rain
2:53 PM 36.0 °F - 34.0 °F 93% 30.09 in 6.0 mi Calm Calm - 0.06 in Rain Light Rain
3:53 PM 37.0 °F - 36.0 °F 96% 30.09 in 10.0 mi Calm Calm - 0.02 in   Overcast
4:02 PM 37.4 °F - 35.6 °F 93% 30.03 in 10.0 mi Calm Calm - N/A   Overcast
4:53 PM 36.0 °F 31.1 °F 35.1 °F 97% 30.09 in 10.0 mi NE 5.8 mph - N/A   Overcast
5:53 PM 36.0 °F 33.3 °F 34.0 °F 93% 30.09 in 10.0 mi North 3.5 mph - N/A   Overcast
6:53 PM 36.0 °F - 35.1 °F 97% 30.10 in 10.0 mi Calm Calm - N/A   Overcast
7:53 PM 34.0 °F - 34.0 °F 100% 30.10 in 10.0 mi Calm Calm - N/A   Overcast
8:53 PM 33.1 °F 30.0 °F 32.0 °F 96% 30.11 in 10.0 mi North 3.5 mph - N/A   Clear
9:53 PM 32.0 °F - 30.9 °F 96% 30.11 in 10.0 mi Calm Calm - N/A   Clear
10:45 PM 28.4 °F - 26.6 °F 93% 30.04 in 2.0 mi Calm Calm - N/A   Clear
10:53 PM 28.0 °F 24.2 °F 27.0 °F 96% 30.11 in 2.5 mi NW 3.5 mph - N/A   Clear
10:57 PM 26.6 °F 22.6 °F 26.6 °F 100% 30.05 in 1.2 mi NW 3.5 mph - N/A   Partly Cloudy
11:00 PM 26.6 °F 22.6 °F 26.6 °F 100% 30.04 in 0.8 mi NW 3.5 mph - N/A   Mist
11:09 PM 26.6 °F 22.6 °F 26.6 °F 100% 30.04 in 1.2 mi NW 3.5 mph - N/A   Partly Cloudy
11:13 PM 26.6 °F 22.6 °F 26.6 °F 100% 30.04 in 4.0 mi NW 3.5 mph - N/A   Partly Cloudy
11:53 PM 27.0 °F 21.6 °F 26.1 °F 96% 30.11 in 6.0 mi NW 4.6 mph - N/A   Clear